(434194) = 2003 FK127

Discovered at Kitt Peak on 2003-03-30 by M. W. Buie.

Orbit

Orbit type: Distant object

Note: WebGL enabled browser required.

epoch2024-03-31.0
epoch JD2460400.5
perihelion date2024-11-11.16749
perihelion JD2460625.66749
argument of perihelion (°)114.03440
ascending node (°)84.25686
inclination (°)2.27316
eccentricity0.0433635
perihelion distance (AU)40.5154370
Tisserand w.r.t. Jupiter5.8
ΔV w.r.t. Earth (km/sec)12.4
semimajor axis (AU)42.3519677
mean anomaly (°)359.19481
mean daily motion (°/day)0.00357600
aphelion distance (AU)44.188
period (years)276
P-vector [x]-0.94875829
P-vector [y]-0.30242497
P-vector [z]-0.09163430
Q-vector [x]0.31352871
Q-vector [y]-0.86466949
Q-vector [z]-0.39248747
absolute magnitude7.15
phase slope0.15
uncertainty4
referenceE2024-H05
observations used37
oppositions7
arc length (days)7293
first opposition used2003
last opposition used2023
residual rms (arc-secs)0.12
perturbers coarse indicatorM-v
perturbers precise indicator003Ek
first observation date used2003-03-30.0
last observation date used2023-03-18.0
computer nameMPCLINUX
Minimum Orbit Intersection Distances (in AU)
for orbit epoch: 2460400.5, reference: E2024-H05
Mercury40.0922
Venus39.7942
Earth39.5146
Mars38.8869
Jupiter35.0634
Saturn30.7285
Uranus21.8483
Neptune9.86703

Observations

32 total observations over interval: 2003 03 30.25224 – 2023 03 18.467570
These data are available for download (format description).

Date (UT) J2000 RA J2000 Dec Magn Location Ref
2003 03 30.25224 11 15 46.73 +07 15 34.3 22.5 R 695 – Kitt Peak MPS 78427
2003 03 30.35207 11 15 46.29 +07 15 36.8   695 – Kitt Peak MPS 78427
2003 03 31.32361 11 15 42.15 +07 16 02.1   695 – Kitt Peak MPS 78427
2003 04 01.219887 11 15 38.32 +07 16 23.9 22.8 V 645 – Apache Point-Sloan Digital Sky Survey MPS 814987
2003 04 01.220716 11 15 38.32 +07 16 24.0 22.6 V 645 – Apache Point-Sloan Digital Sky Survey MPS 814987
2003 04 01.223204 11 15 38.32 +07 16 24.0 23.6 V 645 – Apache Point-Sloan Digital Sky Survey MPS 814987
2004 02 26.37036 11 23 36.05 +06 26 27.4 23.1 R 695 – Kitt Peak MPS 100870
2004 02 26.44895 11 23 35.69 +06 26 29.9   695 – Kitt Peak MPS 100870
2004 02 27.36196 11 23 31.57 +06 26 56.9   695 – Kitt Peak MPS 100870
2004 03 15.21939 11 22 13.64 +06 35 18.1 23.1 R 695 – Kitt Peak MPS 104311
2004 03 15.29853 11 22 13.27 +06 35 20.4   695 – Kitt Peak MPS 104311
2005 03 11.30266 11 27 55.54 +05 59 16.0 22.9 R 695 – Kitt Peak MPS 130206
2005 03 12.26017 11 27 51.08 +05 59 44.7   695 – Kitt Peak MPS 130206
2005 03 12.34312 11 27 50.70 +05 59 46.8   695 – Kitt Peak MPS 130206
2013 03 12.27040 12 10 36.74 +01 21 59.8 22.8 R 695 – Kitt Peak MPS 477686
2013 03 12.32348 12 10 36.52 +01 22 01.0   695 – Kitt Peak MPS 477686
2013 03 13.29330 12 10 32.11 +01 22 30.4   695 – Kitt Peak MPS 477686
2015 02 18.31164 12 22 49.19 +00 01 01.5 22.9 R 695 – Kitt Peak MPS 611506
2015 02 18.40538 12 22 48.86 +00 01 03.9   695 – Kitt Peak MPS 611506
2015 02 18.49404 12 22 48.54 +00 01 06.3   695 – Kitt Peak MPS 611506
2015 03 16.27735 12 21 02.82 +00 13 07.6 22.8 R G37 – Lowell Discovery Telescope MPS 587099
2015 03 16.34969 12 21 02.48 +00 13 10.1   G37 – Lowell Discovery Telescope MPS 587099
2015 04 24.20399 12 18 09.88 +00 31 20.8 23.6 R G37 – Lowell Discovery Telescope MPS 604608
2015 04 24.36897 12 18 09.23 +00 31 24.7   G37 – Lowell Discovery Telescope MPS 604608
2017 02 23.52446 12 33 09.62 -01 07 05.0 23.3 r T09 – Subaru Telescope, Maunakea MPS 2078241
2017 02 23.56555 12 33 09.47 -01 07 04.0 23.3 r T09 – Subaru Telescope, Maunakea MPS 2078241
2017 02 23.59748 12 33 09.35 -01 07 03.3 23.2 r T09 – Subaru Telescope, Maunakea MPS 2078241
2017 02 23.62935 12 33 09.20 -01 07 02.1 23.0 r T09 – Subaru Telescope, Maunakea MPS 2078241
2017 02 23.63774 12 33 09.19 -01 07 02.1 23.0 r T09 – Subaru Telescope, Maunakea MPS 2078241
2023 03 18.385820 13 03 49.426 -04 27 21.64 22.6 G G37 – Lowell Discovery Telescope MPS 1835101
2023 03 18.425470 13 03 49.259 -04 27 20.50   G37 – Lowell Discovery Telescope MPS 1835101
2023 03 18.467570 13 03 49.040 -04 27 19.96   G37 – Lowell Discovery Telescope MPS 1835101